Sacramento / Mc Clellan, CA

1:54 AM PST on January 17, 2018 (GMT -0800)
McClellan

Weather History for KMCC - December, 2012

Change the Weather History Date:

Sunday, December 9, 2012

  Actual Average (KMHR) Record (KMHR)
Temperature  
Mean Temperature 48 °F -  
Max Temperature 59 °F 52 °F 64 °F (2004)
Min Temperature 37 °F 39 °F 21 °F (2013)
Degree Days  
Heating Degree Days 17    
Moisture  
Dew Point 41 °F    
Average Humidity 81    
Maximum Humidity 100    
Minimum Humidity 48    
Precipitation  
Precipitation 0.00 in - - ()
Sea Level Pressure  
Sea Level Pressure 30.16 in    
Wind  
Wind Speed 2 mph (SE)    
Max Wind Speed 10 mph    
Max Gust Speed -    
Visibility 6 miles    
Events Fog , Rain    
Averages and records for this station are not official NWS values.
T = Trace of Precipitation, MM = Missing Value Source: NWS Daily Summary

Daily Weather History Graph

Daily Weather History Graph

Search for Another Location

Airport or City:

Trip Planner

Search our weather history database for the weather conditions in past years. The results will help you decide how hot, cold, wet, or windy it might be!

Date:

Astronomy

Dec. 09, 2012 Rise Set
Actual Time 7:12 AM PST 4:44 PM PST
Civil Twilight 6:42 AM PST 5:13 PM PST
Nautical Twilight 6:09 AM PST 5:47 PM PST
Astronomical Twilight 5:37 AM PST 6:19 PM PST
Moon 2:53 AM PST (12/9) 1:52 PM PST (12/9)
Length of Visible Light 10h 31m
Length of Day
9h 31m
Waning Crescent, 17% of the Moon is Illuminated
Dec 9
Waning Crescent
Dec 13
New
Dec 19
First Quarter
Dec 28
Full
Jan 4
Last Quarter

Hourly Weather History & Observations

Time (PST) Temp. Windchill Dew Point Humidity Pressure Visibility Wind Dir Wind Speed Gust Speed Precip Events Conditions
12:10 AM 42.8 °F - 41.0 °F 93% 30.11 in 5.0 mi Calm Calm - N/A   Clear
12:30 AM 41.0 °F 39.0 °F 39.2 °F 93% 30.11 in 4.0 mi SSE 3.5 mph - N/A   Clear
12:50 AM 41.0 °F - 41.0 °F 100% 30.12 in 5.0 mi Calm Calm - N/A   Clear
1:10 AM 41.0 °F - 39.2 °F 93% 30.12 in 4.0 mi Calm Calm - N/A   Clear
1:30 AM 39.2 °F 37.0 °F 39.2 °F 100% 30.12 in 2.5 mi SSE 3.5 mph - N/A   Clear
1:50 AM 39.2 °F 37.0 °F 39.2 °F 100% 30.12 in 4.0 mi South 3.5 mph - N/A   Clear
2:10 AM 41.0 °F 39.0 °F 41.0 °F 100% 30.12 in 5.0 mi SSE 3.5 mph - N/A   Clear
2:30 AM 41.0 °F 39.0 °F 39.2 °F 93% 30.13 in 5.0 mi ENE 3.5 mph - N/A   Clear
2:50 AM 41.0 °F - 39.2 °F 93% 30.13 in 5.0 mi Calm Calm - N/A   Clear
3:10 AM 39.2 °F - 37.4 °F 93% 30.13 in 5.0 mi Calm Calm - N/A   Clear
3:30 AM 39.2 °F - 39.2 °F 100% 30.13 in 5.0 mi Calm Calm - N/A   Clear
3:50 AM 41.0 °F - 39.2 °F 93% 30.13 in 5.0 mi Calm Calm - N/A   Clear
4:10 AM 39.2 °F - 37.4 °F 93% 30.14 in 5.0 mi Calm Calm - N/A   Clear
4:30 AM 39.2 °F 37.0 °F 39.2 °F 100% 30.14 in 5.0 mi South 3.5 mph - N/A   Clear
4:50 AM 39.2 °F 35.9 °F 37.4 °F 93% 30.14 in 0.2 mi South 4.6 mph - N/A   Overcast
5:10 AM 37.4 °F - 37.4 °F 100% 30.14 in 0.2 mi Calm Calm - N/A   Overcast
5:30 AM 37.4 °F - 37.4 °F 100% 30.15 in 0.2 mi Calm Calm - N/A Fog Fog
5:50 AM 39.2 °F - 37.4 °F 93% 30.15 in 0.2 mi Calm Calm - N/A   Mostly Cloudy
6:10 AM 37.4 °F - 37.4 °F 100% 30.16 in 0.2 mi Calm Calm - N/A   Mostly Cloudy
6:30 AM 37.4 °F - 37.4 °F 100% 30.17 in 0.2 mi Calm Calm - N/A   Overcast
6:50 AM 37.4 °F - 37.4 °F 100% 30.17 in 0.8 mi Calm Calm - N/A   Overcast
7:10 AM 37.4 °F - 37.4 °F 100% 30.17 in 0.2 mi Calm Calm - N/A Fog Fog
7:30 AM 37.4 °F 34.9 °F 37.4 °F 100% 30.17 in 0.8 mi NE 3.5 mph - N/A   Mist
7:50 AM 37.4 °F 34.9 °F 37.4 °F 100% 30.17 in 3.0 mi ENE 3.5 mph - N/A   Clear
8:10 AM 39.2 °F - 39.2 °F 100% 30.18 in 4.0 mi Calm Calm - N/A   Clear
8:30 AM 41.0 °F - 41.0 °F 100% 30.18 in 5.0 mi Calm Calm - N/A   Clear
8:50 AM 44.6 °F - 44.6 °F 100% 30.19 in 6.0 mi Calm Calm - N/A Rain Light Rain
9:10 AM 46.4 °F - 41.0 °F 81% 30.19 in 7.0 mi Calm Calm - N/A   Clear
9:30 AM 48.2 °F - 41.0 °F 76% 30.19 in 9.0 mi North 5.8 mph - N/A   Clear
9:50 AM 50.0 °F - 39.2 °F 66% 30.20 in 10.0 mi North 10.4 mph - N/A   Clear
10:10 AM 50.0 °F - 37.4 °F 62% 30.20 in 10.0 mi North 10.4 mph - N/A   Clear
10:30 AM 50.0 °F - 39.2 °F 66% 30.20 in 10.0 mi North 9.2 mph - N/A   Clear
10:50 AM 51.8 °F - 39.2 °F 62% 30.19 in 10.0 mi North 8.1 mph - N/A   Clear
11:10 AM 53.6 °F - 37.4 °F 54% 30.19 in 10.0 mi NNE 9.2 mph - N/A   Clear
11:30 AM 53.6 °F - 37.4 °F 54% 30.18 in 10.0 mi NNE 9.2 mph - N/A   Clear
11:50 AM 53.6 °F - 39.2 °F 58% 30.17 in 10.0 mi North 3.5 mph - N/A   Clear
12:10 PM 55.4 °F - 37.4 °F 51% 30.16 in 10.0 mi Calm Calm - N/A   Clear
12:30 PM 55.4 °F - 39.2 °F 54% 30.15 in 9.0 mi Calm Calm - N/A   Clear
12:50 PM 55.4 °F - 39.2 °F 54% 30.15 in 10.0 mi Calm Calm - N/A   Clear
1:10 PM 57.2 °F - 39.2 °F 51% 30.14 in 10.0 mi WSW 3.5 mph - N/A   Clear
1:30 PM 57.2 °F - 39.2 °F 51% 30.14 in 10.0 mi Calm Calm - N/A   Clear
1:50 PM 59.0 °F - 39.2 °F 48% 30.14 in 10.0 mi Calm Calm - N/A   Clear
2:10 PM 59.0 °F - 39.2 °F 48% 30.13 in 10.0 mi Calm Calm - N/A   Clear
2:30 PM 59.0 °F - 41.0 °F 51% 30.13 in 10.0 mi Calm Calm - N/A   Clear
2:50 PM 59.0 °F - 41.0 °F 51% 30.13 in 10.0 mi Calm Calm - N/A   Clear
3:10 PM 59.0 °F - 41.0 °F 51% 30.13 in 10.0 mi Calm Calm - N/A   Clear
3:30 PM 59.0 °F - 41.0 °F 51% 30.13 in 10.0 mi Calm Calm - N/A   Clear
3:50 PM 59.0 °F - 42.8 °F 55% 30.13 in 10.0 mi Calm Calm - N/A   Clear
4:10 PM 59.0 °F - 41.0 °F 51% 30.14 in 10.0 mi Calm Calm - N/A   Clear
4:30 PM 57.2 °F - 41.0 °F 55% 30.14 in 10.0 mi Calm Calm - N/A   Clear
4:50 PM 55.4 °F - 46.4 °F 72% 30.14 in 9.0 mi ESE 4.6 mph - N/A   Clear
5:10 PM 53.6 °F - 44.6 °F 72% 30.14 in 10.0 mi SE 4.6 mph - N/A   Clear
5:30 PM 53.6 °F - 44.6 °F 72% 30.15 in 10.0 mi SE 5.8 mph - N/A   Clear
5:50 PM 51.8 °F - 44.6 °F 76% 30.15 in 10.0 mi Calm Calm - N/A   Clear
6:10 PM 50.0 °F - 44.6 °F 82% 30.16 in 8.0 mi South 3.5 mph - N/A   Clear
6:30 PM 50.0 °F - 44.6 °F 82% 30.16 in 10.0 mi South 4.6 mph - N/A   Clear
6:50 PM 50.0 °F - 44.6 °F 82% 30.16 in 9.0 mi SSE 3.5 mph - N/A   Clear
7:10 PM 50.0 °F - 44.6 °F 82% 30.17 in 9.0 mi South 3.5 mph - N/A   Clear
7:30 PM 48.2 °F - 44.6 °F 87% 30.18 in 5.0 mi ESE 3.5 mph - N/A   Clear
7:50 PM 48.2 °F - 44.6 °F 87% 30.18 in 3.0 mi SE 4.6 mph - N/A   Clear
8:10 PM 48.2 °F - 44.6 °F 87% 30.19 in 1.8 mi SE 3.5 mph - N/A   Clear
8:30 PM 46.4 °F - 44.6 °F 93% 30.19 in 2.5 mi Calm Calm - N/A   Clear
8:50 PM 46.4 °F 43.5 °F 44.6 °F 93% 30.20 in 2.5 mi SE 5.8 mph - N/A   Clear
9:10 PM 46.4 °F 44.3 °F 44.6 °F 93% 30.20 in 1.8 mi SE 4.6 mph - N/A   Clear
9:30 PM 46.4 °F - 44.6 °F 93% 30.21 in 2.5 mi Calm Calm - N/A   Clear
9:50 PM 46.4 °F 44.3 °F 44.6 °F 93% 30.21 in 3.0 mi SSE 4.6 mph - N/A   Clear
10:10 PM 44.6 °F 42.2 °F 42.8 °F 93% 30.22 in 3.0 mi SE 4.6 mph - N/A   Clear
10:30 PM 44.6 °F 42.2 °F 44.6 °F 100% 30.22 in 2.0 mi SE 4.6 mph - N/A   Clear
10:50 PM 46.4 °F 43.5 °F 44.6 °F 93% 30.22 in 5.0 mi SE 5.8 mph - N/A   Clear
11:10 PM 44.6 °F 42.2 °F 44.6 °F 100% 30.22 in 3.0 mi SE 4.6 mph - N/A   Clear
11:30 PM 44.6 °F 42.2 °F 44.6 °F 100% 30.22 in 2.5 mi SE 4.6 mph - N/A   Clear
11:50 PM 46.4 °F - 44.6 °F 93% 30.22 in 2.5 mi Calm Calm - N/A   Clear